Regional Weather Roundup
Issued by NWS Goodland, KS

Home | Current Version | Previous Version | Graphics & Text | Print | Product List | Glossary On
Versions: 1 2 3 4 5 6 7 8 9 10 11 12 13 14 15 16 17 18 19 20 21 22 23 24 25 26 27 28 29 30 31 32 33 34 35 36 37 38 39 40 41 42 43 44 45 46 47 48 49 50
000
ASUS43 KGLD 101108
RWRGLD

GOODLAND FORECAST AREA HOURLY WEATHER ROUNDUP
NATIONAL WEATHER SERVICE GOODLAND KS
400 AM MST WED FEB 10 2016

...OFFICIAL OBSERVATIONS...

CITY           SKY/WX    TMP DP  RH WIND       PRES   REMARKS
GOODLAND KS    CLEAR     35  24  64 W15       30.10S
HILL CITY KS   CLEAR     32  25  75 CALM      30.05F
IMPERIAL NEB   CLOUDY    36  24  62 W15       30.04F
MCCOOK NEB     CLOUDY    28  24  85 W12       30.04F WCI  18
AKRON CO       CLOUDY    35  19  52 SW17      30.10F
BURLINGTON CO  CLOUDY    31  20  63 W13       30.12F
LIMON CO       CLOUDY    25  14  63 NW9       30.16F
$$

...UNOFFICIAL OBSERVATIONS...

CITY           SKY/WX    TMP DP  RH WIND       PRES   REMARKS
COLBY KS       CLEAR     36  28  75 W14       30.08S
GOVE KS          N/A     30  32 100 MISG        N/A
LENORA KS        N/A     36  32  85 MISG        N/A
NORTON KS      CLEAR     30  23  74 SW13      30.02F
SHARON SPRINGS   N/A     33  26  75 SW10        N/A
KIT CARSON CO    N/A     29  21  72 MISG        N/A
YUMA CO          N/A     28  22  76 W6          N/A
$$



USA.gov is the U.S. government's official web portal to all federal, state and local government web resources and services.